Date String (YYYY-MM-DD hh:mm:ss) UTC,Instrument flags,Ambient pressure (hPa),Sample flow (lpm),Bypass flow (lpm),Sample temperature (°C),Ambient temperature (°C),ASC tube jacket temperature (°C),LED temperature (°C),Box temperature (°C),Sample RH (%),Span deviation,Mass concentration (μg/m³),Mass concentration (μg/m³),Mass concentration (μg/m³)
DateTimeUTC,F1_M11,P_M11,Q1_M11,Q2_M11,T1_M11,T2_M11,T3_M11,T4_M11,T5_M11,U1_M11,ZSPAN_M11,X0_M11,X2_M11,X1_M11
2021-12-18 12:00:00,,0829.8,4.99,0.00,22.4,21.9,00.0,31.4,23.9,08.6,0000.0,0008.24,0004.16,0003.56
2021-12-18 12:01:00,,0829.8,5.01,0.00,22.3,21.7,00.0,31.4,23.8,08.6,0000.0,0008.24,0004.19,0003.57
2021-12-18 12:02:00,,0829.8,4.99,0.00,22.2,21.6,00.0,31.3,23.7,08.7,0000.0,0008.34,0004.21,0003.59
2021-12-18 12:03:00,,0829.8,5.00,0.00,22.2,21.4,00.0,31.3,23.7,08.8,0000.0,0008.71,0004.25,0003.61
2021-12-18 12:04:00,,0829.8,5.00,0.00,22.1,21.4,00.0,31.3,23.6,08.8,0000.0,0008.98,0004.27,0003.64
2021-12-18 12:05:00,,0829.8,5.00,0.00,22.2,21.8,00.0,31.3,23.8,08.7,0000.0,0009.15,0004.30,0003.64
2021-12-18 12:06:00,,0829.8,5.00,0.00,22.3,22.6,00.0,31.3,24.1,08.7,0000.0,0009.19,0004.31,0003.64
2021-12-18 12:07:00,,0829.8,4.99,0.00,22.4,23.2,00.0,31.4,24.3,08.6,0000.0,0009.21,0004.33,0003.62
2021-12-18 12:08:00,,0829.9,5.01,0.00,22.5,23.2,00.0,31.4,24.4,08.5,0000.0,0009.27,0004.37,0003.63
2021-12-18 12:09:00,,0829.8,5.01,0.00,22.5,22.9,00.0,31.4,24.3,08.5,0000.0,0009.45,0004.40,0003.63
2021-12-18 12:10:00,,0829.8,5.00,0.00,22.5,22.5,00.0,31.4,24.2,08.5,0000.0,0009.36,0004.41,0003.64
2021-12-18 12:11:00,,0829.8,5.00,0.00,22.4,22.2,00.0,31.4,24.0,08.5,0000.0,0009.59,0004.43,0003.65
2021-12-18 12:12:00,,0829.8,5.00,0.00,22.4,22.0,00.0,31.4,23.9,08.5,0000.0,0010.04,0004.42,0003.64
2021-12-18 12:13:00,,0829.8,5.00,0.00,22.3,21.8,00.0,31.4,23.8,08.5,0000.0,0010.02,0004.40,0003.62
2021-12-18 12:14:00,,0829.9,5.01,0.00,22.3,21.6,00.0,31.3,23.7,08.6,0000.0,0009.82,0004.41,0003.61
2021-12-18 12:15:00,,0829.8,5.00,0.00,22.2,21.5,00.0,31.3,23.7,08.6,0000.0,0009.42,0004.38,0003.59
2021-12-18 12:16:00,,0829.8,4.99,0.00,22.1,21.4,00.0,31.3,23.6,08.7,0000.0,0009.66,0004.37,0003.60
2021-12-18 12:17:00,,0829.9,5.00,0.00,22.2,21.7,00.0,31.3,23.7,08.7,0000.0,0009.98,0004.36,0003.60
2021-12-18 12:18:00,,0829.9,5.00,0.00,22.3,22.4,00.0,31.3,24.0,08.6,0000.0,0010.37,0004.34,0003.61
2021-12-18 12:19:00,,0829.8,5.00,0.00,22.4,23.1,00.0,31.4,24.2,08.6,0000.0,0010.77,0004.29,0003.60
2021-12-18 12:20:00,,0829.8,4.99,0.00,22.5,23.3,00.0,31.4,24.4,08.5,0000.0,0010.98,0004.24,0003.58
2021-12-18 12:21:00,,0829.9,5.01,0.00,22.6,22.9,00.0,31.4,24.4,08.5,0000.0,0011.27,0004.23,0003.57
2021-12-18 12:22:00,,0829.9,5.00,0.00,22.5,22.6,00.0,31.4,24.2,08.5,0000.0,0011.43,0004.27,0003.57
2021-12-18 12:23:00,,0829.9,4.99,0.00,22.5,22.3,00.0,31.4,24.1,08.6,0000.0,0011.30,0004.31,0003.58
2021-12-18 12:24:00,,0829.9,5.00,0.00,22.4,22.1,00.0,31.4,24.0,08.6,0000.0,0011.33,0004.32,0003.60
2021-12-18 12:25:00,,0829.9,5.02,0.00,22.3,21.9,00.0,31.4,23.9,08.6,0000.0,0011.23,0004.31,0003.62
2021-12-18 12:26:00,,0829.8,5.01,0.00,22.3,21.7,00.0,31.4,23.8,08.7,0000.0,0012.01,0004.30,0003.64
2021-12-18 12:27:00,,0829.9,5.00,0.00,22.2,21.5,00.0,31.4,23.7,08.7,0000.0,0011.83,0004.33,0003.65
2021-12-18 12:28:00,,0829.9,4.99,0.00,22.2,21.4,00.0,31.3,23.6,08.7,0000.0,0011.89,0004.35,0003.67
2021-12-18 12:29:00,,0829.8,5.01,0.00,22.1,21.5,00.0,31.3,23.6,08.7,0000.0,0011.80,0004.43,0003.69
2021-12-18 12:30:00,,0830.0,4.99,0.00,22.2,22.2,00.0,31.3,23.9,08.7,0000.0,0011.51,0004.45,0003.70
2021-12-18 12:31:00,,0829.9,5.00,0.00,22.4,22.9,00.0,31.3,24.2,08.5,0000.0,0011.02,0004.45,0003.70
2021-12-18 12:32:00,,0830.0,4.99,0.00,22.5,23.3,00.0,31.4,24.4,08.5,0000.0,0010.68,0004.44,0003.70
2021-12-18 12:33:00,,0830.0,4.99,0.00,22.5,23.0,00.0,31.4,24.3,08.4,0000.0,0010.52,0004.41,0003.70
2021-12-18 12:34:00,,0829.9,5.01,0.00,22.5,22.7,00.0,31.4,24.3,08.4,0000.0,0010.11,0004.38,0003.68
2021-12-18 12:35:00,,0829.9,5.01,0.00,22.5,22.4,00.0,31.4,24.2,08.4,0000.0,0010.00,0004.32,0003.66
2021-12-18 12:36:00,,0829.9,4.99,0.00,22.4,22.1,00.0,31.4,24.0,08.5,0000.0,0010.10,0004.30,0003.63
2021-12-18 12:37:00,,0830.0,5.01,0.00,22.3,21.9,00.0,31.4,23.9,08.5,0000.0,0009.35,0004.29,0003.62
2021-12-18 12:38:00,,0830.1,4.99,0.00,22.3,21.7,00.0,31.4,23.8,08.6,0000.0,0009.28,0004.27,0003.62
2021-12-18 12:39:00,,0830.1,5.01,0.00,22.2,21.5,00.0,31.3,23.7,08.6,0000.0,0009.93,0004.25,0003.61
2021-12-18 12:40:00,,0830.1,4.99,0.00,22.2,21.4,00.0,31.3,23.6,08.6,0000.0,0009.68,0004.21,0003.60
2021-12-18 12:41:00,,0830.1,5.01,0.00,22.2,21.7,00.0,31.3,23.7,08.6,0000.0,0009.52,0004.20,0003.61
2021-12-18 12:42:00,,0830.1,5.00,0.00,22.3,22.5,00.0,31.3,24.0,08.6,0000.0,0009.50,0004.18,0003.61
2021-12-18 12:43:00,,0830.1,5.00,0.00,22.4,23.2,00.0,31.4,24.3,08.5,0000.0,0009.40,0004.15,0003.61
2021-12-18 12:44:00,,0830.1,4.99,0.00,22.6,23.3,00.0,31.4,24.4,08.5,0000.0,0009.19,0004.10,0003.62
2021-12-18 12:45:00,,0830.1,5.00,0.00,22.6,23.0,00.0,31.4,24.3,08.5,0000.0,0009.29,0004.12,0003.64
2021-12-18 12:46:00,,0830.1,5.01,0.00,22.5,22.6,00.0,31.4,24.2,08.5,0000.0,0009.52,0004.17,0003.66
2021-12-18 12:47:00,,0830.1,4.99,0.00,22.5,22.3,00.0,31.4,24.1,08.6,0000.0,0009.35,0004.22,0003.68
2021-12-18 12:48:00,,0830.1,5.01,0.00,22.4,22.1,00.0,31.4,24.0,08.6,0000.0,0009.28,0004.24,0003.70
2021-12-18 12:49:00,,0830.1,4.99,0.00,22.4,21.9,00.0,31.4,23.9,08.6,0000.0,0008.93,0004.24,0003.71
2021-12-18 12:50:00,,0830.1,5.01,0.00,22.3,21.7,00.0,31.4,23.8,08.6,0000.0,0008.15,0004.26,0003.72
2021-12-18 12:51:00,,0830.1,5.00,0.00,22.3,21.6,00.0,31.4,23.7,08.6,0000.0,0007.91,0004.25,0003.74
2021-12-18 12:52:00,,0830.1,5.01,0.00,22.2,21.4,00.0,31.3,23.7,08.6,0000.0,0007.91,0004.26,0003.75
2021-12-18 12:53:00,,0830.2,5.00,0.00,22.2,21.6,00.0,31.3,23.7,08.7,0000.0,0007.97,0004.29,0003.78
2021-12-18 12:54:00,,0830.1,5.00,0.00,22.3,22.3,00.0,31.4,23.9,08.7,0000.0,0008.62,0004.37,0003.81
2021-12-18 12:55:00,,0830.2,4.99,0.00,22.4,23.0,00.0,31.4,24.2,08.6,0000.0,0009.21,0004.41,0003.84
2021-12-18 12:56:00,,0830.2,5.00,0.00,22.6,23.4,00.0,31.4,24.5,08.6,0000.0,0009.52,0004.45,0003.86
2021-12-18 12:57:00,,0830.1,4.99,0.00,22.6,23.1,00.0,31.4,24.4,08.5,0000.0,0009.65,0004.48,0003.87
2021-12-18 12:58:00,,0830.1,5.01,0.00,22.6,22.8,00.0,31.5,24.3,08.5,0000.0,0009.74,0004.49,0003.86
2021-12-18 12:59:00,,0830.1,4.99,0.00,22.5,22.5,00.0,31.5,24.2,08.5,0000.0,0010.34,0004.53,0003.86
